Location: Newark
(49.0797°N, 0.6553°W)
Time: 06:54:56
(UTC+00:00)

Envisat - Visible Passes

Search period start: 16 October 2019 00:00
Search period end: 26 October 2019 00:00
Orbit: 764 x 766 km, 98.1° (Epoch: 15 October)

Date Brightness Start Highest point End Pass type
(mag) Time Alt. Az. Time Alt. Az. Time Alt. Az.
16 Oct 6.7 05:26:14 10° ENE 05:27:10 10° E 05:28:05 10° E visible
16 Oct 3.7 18:20:41 10° S 18:25:41 59° W 18:30:45 10° NNW visible
17 Oct 3.0 17:43:52 10° SSE 17:48:54 70° ENE 17:53:59 10° N visible
17 Oct 5.8 19:25:01 10° SW 19:28:27 18° W 19:31:55 10° NW visible
18 Oct 6.1 05:49:37 10° NE 05:53:03 18° E 05:56:28 10° SE visible
18 Oct 4.6 18:46:40 10° SSW 18:51:19 36° W 18:56:01 10° NNW visible
19 Oct 3.3 18:09:20 10° S 18:14:24 73° WSW 18:19:31 10° NNW visible
19 Oct 6.3 19:53:17 10° W 19:54:20 11° W 19:55:23 10° WNW visible
20 Oct 3.1 17:32:42 10° SSE 17:37:40 57° ENE 17:42:40 10° N visible
20 Oct 5.5 19:13:08 10° SW 19:17:04 22° W 19:21:01 10° NW visible
21 Oct 6.3 05:38:52 10° NE 05:41:38 15° E 05:44:23 10° ESE visible
21 Oct 4.2 18:35:09 10° S 18:40:00 44° W 18:44:52 10° NNW visible
22 Oct 3.0 17:58:02 10° SSE 18:03:08 89° WSW 18:08:15 10° NNW visible
22 Oct 6.1 19:40:27 10° WSW 19:42:54 13° W 19:45:22 10° WNW visible
23 Oct 5.1 19:01:24 10° SSW 19:05:41 27° W 19:10:00 10° NW visible
24 Oct 6.5 05:28:30 10° ENE 05:30:12 12° E 05:31:53 10° ESE visible
24 Oct 3.8 18:23:43 10° S 18:28:41 55° W 18:33:41 10° NNW visible
25 Oct 2.9 17:46:48 10° SSE 17:51:52 75° ENE 17:56:58 10° N visible
25 Oct 5.8 19:28:16 10° SW 19:31:29 17° W 19:34:43 10° NW visible
